Theta_e
298 294 294 297 297 298 301 299 298 302 299 297 297 298 301 303 303 305 307 309 311 314 319 322 325 328 328 330 331 333 334 335 335 334 332 331 330 332 332 333 334 334 334 334
292 292 302 301 298 296 300 298 298 298 296 297 298 297 301 304 302 305 307 307 309 312 315 319 323 326 328 329 330 332 333 334 335 335 335 333 332 332 333 334 334 335 335 334
291 298 304 299 295 293 294 298 298 297 294 296 295 295 298 302 304 305 305 308 308 309 312 316 320 323 326 328 330 331 332 333 335 335 335 334 335 334 333 332 331 335 335 335
290 296 296 296 296 298 292 298 300 293 293 292 296 292 299 299 300 302 303 304 305 308 310 312 317 320 325 327 330 330 331 332 334 336 335 333 329 329 331 333 335 335 335 334
290 291 291 289 296 301 298 296 295 295 294 294 291 289 296 300 297 300 303 305 307 308 308 308 311 315 320 326 329 331 331 331 332 334 334 334 332 332 332 333 334 334 335 335
290 293 293 294 293 296 296 294 293 293 293 286 293 290 293 294 297 300 304 306 307 309 309 309 310 311 312 317 322 328 328 329 331 332 333 332 332 332 331 332 332 333 332 333
287 287 293 293 289 292 294 293 285 284 284 285 288 290 292 299 300 300 302 305 308 310 310 308 305 304 306 308 308 311 314 321 327 329 330 331 330 330 329 329 329 327 327 328
285 282 288 293 291 289 291 295 287 281 282 285 284 284 290 298 301 302 301 300 303 303 304 304 304 305 305 306 307 308 312 311 316 322 325 327 328 327 328 328 327 328 329 330
286 285 291 294 296 295 290 290 295 285 281 284 286 290 294 298 296 296 297 298 299 301 303 303 305 306 307 308 309 310 312 316 319 320 322 321 320 319 322 323 322 327 328 327
292 282 290 290 293 294 293 295 286 287 280 279 285 286 289 294 293 294 294 295 298 300 302 304 305 307 309 310 311 312 314 314 315 317 318 318 318 317 317 317 316 316 323 325
294 289 284 288 287 289 289 289 290 291 288 284 282 285 294 295 295 294 296 298 299 300 302 303 305 306 307 309 310 311 311 311 312 313 313 314 314 314 315 314 314 313 315 317
295 292 282 285 292 293 293 291 290 286 282 284 284 287 290 293 295 295 295 296 299 301 303 304 304 304 305 307 308 309 310 310 311 311 312 312 313 313 313 312 310 311 309 308
292 288 282 283 287 290 287 292 292 292 289 284 284 287 292 293 294 294 294 295 298 301 301 302 302 303 304 305 306 307 307 307 308 309 310 310 310 309 306 304 303 302 302 300
295 288 286 282 286 290 285 289 291 290 286 285 286 289 290 292 293 294 293 294 296 299 300 301 301 302 303 303 304 305 305 305 305 307 307 307 307 307 305 302 300 299 298 296
293 285 286 285 289 290 288 288 289 288 289 286 288 288 293 293 294 295 295 295 296 298 299 300 301 302 302 301 302 303 303 303 303 304 304 303 301 301 300 299 298 296 294 293
292 286 286 283 286 289 286 288 289 290 290 290 290 290 296 297 297 295 295 294 295 297 298 299 300 301 301 301 301 300 301 300 301 302 301 298 298 295 294 292 292 291 291 290
290 287 285 283 285 285 283 286 288 289 291 291 287 292 295 293 294 296 296 296 296 297 298 298 299 299 300 300 301 299 300 299 299 298 295 293 292 290 291 290 290 289 289 289
288 287 287 280 283 276 289 293 292 290 291 293 293 295 296 295 296 298 299 297 297 298 299 299 299 300 300 300 300 300 299 296 295 294 291 290 290 288 287 288 287 288 288 287
293 288 283 281 281 286 287 290 289 288 288 294 293 294 296 295 295 295 298 299 299 299 300 301 301 301 299 298 298 296 293 292 291 290 289 288 288 286 285 285 286 286 286 286
290 291 286 284 280 279 289 292 295 293 284 295 295 294 294 293 289 294 296 296 298 299 298 297 296 295 295 294 293 291 291 290 289 289 288 287 286 285 284 285 284 285 285 285
284 285 283 284 284 288 291 292 295 284 287 293 295 295 293 291 296 298 297 295 297 296 295 295 294 292 292 289 289 289 288 288 288 286 285 284 284 284 284 284 283 284 284 283
284 284 283 285 283 281 289 291 288 292 289 291 294 295 294 295 295 294 293 291 291 291 291 291 289 287 287 288 288 287 287 286 284 283 282 282 282 282 283 283 282 283 283 283
285 289 287 288 287 290 291 292 295 295 293 291 292 293 295 294 292 292 291 290 290 290 287 286 286 284 284 285 286 285 283 283 281 281 281 281 281 282 282 282 281 281 282 282
290 293 290 288 290 288 290 292 292 293 293 293 293 293 295 293 291 289 289 287 286 285 284 283 283 282 281 281 282 283 281 280 281 281 280 279 280 280 280 281 282 282 281 281
291 290 288 288 286 289 290 292 293 292 290 290 289 290 292 290 288 287 285 285 285 284 283 283 283 282 280 280 280 280 279 280 281 281 279 279 280 279 280 280 281 281 282 283
290 290 288 288 291 292 292 292 293 290 289 290 289 288 289 289 287 287 285 285 283 282 282 282 281 280 279 279 278 277 278 281 281 280 279 280 279 279 280 280 279 281 282 283
Wind_Speed
5 4 20 23 18 17 14 20 17 15 9 13 18 16 17 10 11 14 16 15 15 16 15 16 16 15 15 15 16 17 17 15 12 10 9 8 9 8 9 9 11 10 10 11
3 12 23 18 20 24 19 18 17 4 7 10 13 18 17 15 13 16 16 16 17 16 17 17 18 17 17 17 16 17 16 16 14 9 9 9 8 8 8 8 9 11 10 10
7 3 17 22 22 17 10 21 15 9 9 8 5 14 16 18 14 13 14 15 16 17 18 17 17 18 17 18 18 17 17 16 15 15 9 8 8 8 7 9 8 8 10 9
4 6 16 17 22 21 16 8 9 11 12 7 13 7 14 21 22 17 18 18 17 16 13 13 17 17 17 17 15 15 16 16 15 16 12 13 10 9 8 8 7 7 10 10
8 7 10 13 23 25 9 11 7 12 11 3 8 7 11 10 22 24 20 18 19 17 16 16 15 15 15 14 13 13 14 14 14 13 14 10 11 8 7 8 8 8 8 9
3 6 4 9 5 6 13 18 12 6 4 8 15 12 9 11 18 19 20 22 20 18 16 14 10 9 9 6 8 9 12 14 14 13 13 13 12 11 8 8 5 5 5 7
3 1 0 2 6 7 12 20 6 6 8 8 2 14 13 8 13 16 15 20 19 17 16 12 12 9 9 10 10 9 11 12 10 11 12 13 13 14 14 11 6 7 7 6
9 5 11 11 13 11 21 17 7 9 7 7 1 10 7 16 15 11 7 6 6 2 2 6 9 10 10 10 11 11 11 11 11 11 12 10 10 8 8 6 4 5 5 5
11 4 17 13 12 15 19 23 5 7 3 2 8 8 9 11 11 9 10 8 6 7 7 7 6 7 8 8 9 10 10 9 10 11 10 6 4 4 4 3 1 3 4 4
16 8 15 6 4 15 14 12 7 4 8 6 5 5 8 9 8 8 10 11 11 9 7 7 7 7 6 7 7 7 8 8 7 7 8 7 7 6 5 5 6 6 5 3
15 11 6 9 15 23 13 16 9 8 3 3 4 4 3 4 5 9 8 9 11 9 9 9 8 8 7 7 8 8 8 9 8 7 5 6 5 4 3 3 3 3 3 2
9 9 10 23 10 7 20 19 17 7 5 1 1 2 3 3 4 6 6 3 4 8 10 10 9 9 8 8 7 8 7 7 6 6 6 5 5 5 4 4 4 2 2 2
9 7 11 7 6 5 10 21 20 12 1 8 6 3 2 3 6 5 5 6 7 8 10 10 9 8 8 8 7 7 7 7 6 6 6 5 5 6 5 5 4 4 4 5
8 5 10 16 25 13 14 20 15 19 9 5 13 5 5 7 6 5 6 9 11 11 11 10 9 9 8 7 8 8 7 7 6 6 6 6 5 6 6 5 5 5 5 5
5 4 4 4 2 14 17 20 22 23 23 15 13 18 8 6 6 7 8 10 10 11 11 10 9 8 8 8 8 7 8 7 7 7 6 6 5 5 5 5 5 5 5 6
1 7 4 4 4 8 13 20 22 27 25 26 13 12 10 4 5 7 7 10 11 11 11 10 9 10 10 9 9 7 8 7 6 6 6 6 5 5 5 5 5 5 5 4
23 13 9 7 2 8 1 24 28 25 25 31 20 15 10 8 7 7 11 12 12 12 12 11 11 10 9 10 9 10 9 9 8 6 6 6 6 6 5 5 5 4 4 4
15 12 3 5 3 7 5 17 19 24 23 24 24 8 13 10 10 10 10 13 13 12 12 12 11 10 8 7 7 7 7 7 7 5 5 5 5 6 5 5 6 5 4 4
9 6 7 7 9 3 9 13 25 19 20 20 24 18 7 5 5 7 6 8 13 16 14 9 7 7 7 7 6 7 6 6 7 7 6 5 5 5 5 5 6 4 4 3
4 7 7 6 8 12 5 15 14 8 16 21 18 16 16 10 8 13 12 13 12 6 7 9 8 7 7 6 7 8 7 7 6 6 5 5 5 6 6 5 4 2 2 4
8 8 14 9 8 10 5 12 20 11 10 13 18 15 13 12 20 10 6 6 8 10 11 11 9 6 6 6 6 5 6 6 6 6 6 6 5 5 5 4 2 3 4 4
14 12 10 8 11 20 4 21 24 8 4 3 8 18 22 24 4 6 7 8 10 12 10 8 9 6 5 5 5 5 5 5 5 6 6 5 4 3 3 5 3 3 4 4
11 14 11 15 10 1 17 11 9 1 6 5 7 7 13 9 6 8 7 9 8 9 7 6 8 8 5 4 4 4 4 5 5 6 6 5 5 3 3 4 4 4 4 3
6 12 5 4 8 7 15 2 2 3 2 4 4 5 8 9 10 7 8 8 8 8 8 4 8 7 6 4 6 5 4 4 6 7 5 4 4 4 3 2 3 4 4 4
5 10 7 3 1 4 6 7 7 5 5 4 4 4 7 11 7 10 9 10 9 7 6 6 7 7 7 5 6 6 4 3 5 5 4 4 2 2 3 3 2 3 3 5
8 12 14 10 13 6 12 15 8 8 7 7 6 5 5 7 11 13 11 10 9 8 7 7 7 8 6 6 6 6 3 2 4 4 3 2 2 2 3 3 3 9 10 8
Wind_Direction
167 174 189 195 200 240 203 198 198 212 162 194 217 224 235 186 213 224 220 213 211 213 203 199 199 200 200 200 200 203 198 202 195 202 200 205 210 210 217 219 217 208 216 206
112 223 205 172 189 216 226 202 209 174 144 225 222 232 233 218 212 221 220 216 212 205 200 195 192 197 201 201 206 206 206 201 200 200 204 210 214 211 224 221 220 218 216 219
167 227 191 176 190 205 237 206 197 198 169 235 289 253 237 235 213 225 233 241 221 218 206 192 194 196 201 202 203 207 206 204 205 204 200 205 224 212 210 224 221 215 221 212
245 268 185 186 189 197 199 216 226 153 173 212 191 260 208 216 220 221 225 223 228 224 228 208 193 203 200 203 203 204 208 209 207 202 209 205 212 217 216 220 218 215 211 218
187 204 199 189 193 198 204 154 161 187 209 304 189 246 252 226 214 215 217 223 222 221 212 211 209 198 211 196 200 205 209 211 208 209 208 213 211 222 232 219 219 205 216 215
66 306 208 209 231 247 144 128 124 146 193 241 225 213 234 191 220 225 218 218 223 219 218 212 194 185 195 179 193 201 209 211 207 206 206 217 219 220 231 227 220 209 219 216
81 271 144 52 89 335 209 160 139 186 201 232 8 217 247 248 215 231 231 225 222 220 213 191 187 190 193 180 188 194 205 213 206 204 210 214 217 224 227 229 213 218 229 224
156 198 177 207 182 185 222 193 163 177 189 182 106 225 239 240 243 235 237 289 314 154 215 208 200 197 193 190 191 189 190 196 196 198 205 214 219 226 230 224 214 217 221 212
156 197 166 188 201 243 212 216 105 97 37 147 196 235 276 250 224 222 208 198 198 195 204 188 168 177 176 184 191 194 185 185 183 191 195 193 173 174 201 205 231 254 245 235
159 118 179 137 181 249 224 193 170 205 159 210 187 253 237 203 187 197 200 207 213 184 174 162 159 147 146 147 143 150 158 161 159 170 180 189 191 197 214 224 228 230 243 247
166 114 124 145 205 199 217 195 213 203 212 213 163 223 167 202 158 186 187 194 200 182 178 164 148 140 139 142 147 142 141 143 150 154 153 162 163 171 183 217 239 248 254 268
154 150 153 200 182 267 225 210 202 192 187 19 23 253 158 212 221 202 191 164 182 163 161 154 154 152 153 150 146 152 147 141 140 143 151 148 143 139 123 103 75 74 135 50
166 153 126 143 322 252 230 212 211 228 76 193 179 194 136 216 229 209 192 149 145 156 151 147 150 164 166 162 159 151 149 139 140 139 151 140 129 117 103 93 87 76 87 74
129 150 168 183 200 156 198 210 215 214 226 146 225 182 180 209 222 186 178 159 161 169 167 164 168 173 169 164 169 164 151 146 150 157 152 138 131 132 133 115 97 87 79 83
73 88 359 47 231 174 189 192 191 208 218 216 214 223 208 207 198 184 164 158 165 175 174 176 172 168 169 178 174 171 159 157 157 154 155 137 120 110 105 95 87 76 71 87
119 165 130 16 319 199 184 192 195 215 213 235 228 234 217 169 148 161 161 166 180 182 182 182 170 173 179 180 185 172 167 161 163 159 145 126 125 105 106 113 112 109 109 109
174 162 160 197 304 103 146 195 197 214 208 221 216 214 178 199 191 185 190 192 189 183 182 185 187 183 180 179 179 183 171 156 166 147 140 145 136 133 129 121 111 114 118 128
157 141 133 134 140 198 232 199 210 222 221 220 237 211 193 190 202 207 198 189 181 181 187 193 188 181 166 154 170 167 158 154 139 145 148 144 143 133 135 140 134 136 138 132
174 140 102 150 195 296 247 231 201 196 235 219 229 225 188 136 88 241 195 186 189 194 196 181 160 144 148 163 156 138 142 146 143 159 157 155 145 139 141 144 142 127 134 118
355 101 121 147 181 212 228 171 166 107 272 221 221 212 198 127 211 228 185 198 202 158 120 124 118 127 139 136 134 145 160 159 165 157 142 133 136 145 148 142 132 97 98 114
157 174 193 178 215 251 176 141 137 155 252 193 189 192 165 189 219 212 143 151 154 141 139 132 140 137 122 117 125 139 143 169 144 128 123 116 116 124 120 115 93 131 124 123
166 158 186 193 218 246 125 155 170 188 69 130 165 183 187 203 176 121 108 123 129 131 131 131 126 117 104 106 121 140 147 111 111 112 104 103 102 94 103 127 127 137 138 143
189 192 168 195 192 202 170 175 194 19 129 188 163 175 196 172 152 141 138 135 135 131 115 99 117 115 97 86 57 108 101 110 112 106 105 108 100 107 127 148 160 157 170 175
209 189 187 119 185 153 194 236 233 185 148 132 98 129 162 163 141 133 131 127 126 129 126 106 115 113 106 84 75 74 101 108 120 117 117 115 134 145 158 186 181 183 185 194
159 144 167 265 251 77 186 205 183 176 99 95 70 138 145 137 146 138 129 127 125 121 108 112 113 103 97 92 84 78 83 120 115 105 110 116 124 190 190 231 210 215 214 215
190 188 195 225 153 177 191 199 137 145 145 148 137 126 104 127 142 136 126 121 120 117 103 98 89 101 107 100 93 81 64 99 115 102 96 140 176 193 225 228 247 243 248 239